Probability
4 6 7 8 8 9 11 14 13 10 8 8 7 5 2 1 1 1 1 2 3 3 3 3 3 2 1 0 0 0 0 0 0 0 0 0 0 1 2 3 3 3 3
4 4 6 7 7 7 9 12 12 11 10 10 9 7 4 2 2 2 1 1 2 3 3 3 3 1 0 0 0 0 0 0 0 0 0 0 0 0 1 2 3 3 3
3 4 5 7 6 6 8 10 10 10 11 11 9 7 5 4 4 3 2 1 2 3 4 3 2 1 0 0 0 0 0 0 0 0 0 0 0 0 0 1 1 2 1
3 4 6 6 5 6 8 10 10 8 8 9 8 7 6 5 5 5 3 3 3 4 4 4 2 1 0 1 1 0 0 0 0 0 0 0 0 0 0 0 0 0 0
2 3 5 6 7 7 8 10 9 6 5 7 8 8 8 8 7 5 4 4 4 4 4 3 3 1 1 2 2 1 1 1 1 0 0 0 0 0 0 0 0 0 0
2 3 5 7 8 7 8 10 8 5 5 6 7 8 8 8 6 4 4 4 5 4 3 3 3 3 3 3 3 3 2 2 2 1 0 0 0 0 0 0 0 0 0
2 2 4 7 8 6 7 8 7 5 4 5 6 6 6 6 5 4 4 5 5 4 3 3 3 3 3 3 3 3 3 3 3 2 1 0 0 0 0 0 0 0 0
1 2 4 5 5 4 4 4 4 3 3 4 4 4 4 4 4 4 5 5 5 4 3 3 3 3 3 3 3 3 3 3 3 3 2 1 0 0 0 0 0 0 0
1 2 4 4 3 2 1 1 1 1 1 2 3 3 3 3 4 4 4 4 4 3 3 3 3 3 3 3 3 3 3 3 3 3 3 2 1 0 0 0 0 0 0
3 4 5 5 3 1 0 0 0 0 0 1 1 2 2 3 3 4 3 3 3 3 3 3 3 3 3 3 3 3 3 3 3 3 3 3 2 0 0 0 0 0 0
4 5 6 5 3 1 0 0 0 1 0 0 0 1 1 1 2 2 3 3 3 3 3 3 3 3 3 3 3 3 3 3 3 3 3 3 1 0 0 0 0 0 0
6 6 6 5 3 1 0 0 0 0 0 0 0 0 0 0 1 1 1 2 3 3 3 3 3 3 3 3 3 3 3 3 3 3 3 3 1 0 0 0 0 0 0
6 6 6 5 3 1 0 0 0 0 1 1 0 0 0 0 0 0 0 1 2 3 3 2 2 2 2 3 3 3 3 3 2 3 3 3 2 0 0 0 0 0 0
4 4 5 4 2 1 0 1 1 1 2 2 1 0 0 0 0 0 1 2 3 2 1 1 1 1 1 1 2 2 2 1 1 1 2 2 1 0 0 0 0 0 0
3 3 3 3 1 0 0 1 1 2 3 3 2 1 0 0 0 0 1 3 3 2 1 0 0 0 0 0 1 1 1 0 0 0 1 1 0 0 0 0 0 0 0
3 3 3 2 1 0 0 0 1 2 3 3 3 2 2 2 1 1 1 2 2 1 0 0 0 0 0 0 0 0 0 0 0 0 0 0 0 0 0 0 0 0 0
1 2 2 1 0 0 0 0 1 2 3 3 3 3 3 3 2 1 1 1 1 0 0 0 0 0 0 0 0 0 0 0 0 0 0 0 0 0 0 0 0 0 0
0 1 1 0 0 0 0 0 0 1 3 4 4 3 3 3 3 2 1 0 0 0 0 0 0 0 0 0 0 0 0 0 0 0 0 0 0 0 0 0 0 0 0
0 0 0 0 0 0 0 0 0 1 3 5 5 4 4 5 5 5 3 1 0 0 0 0 0 0 0 0 0 0 0 0 0 0 0 0 0 0 0 0 0 0 0
0 0 0 0 0 0 0 0 0 0 2 4 5 5 6 7 7 6 5 3 1 0 0 0 0 0 0 0 0 0 0 0 0 0 0 0 0 0 0 0 0 0 0
0 0 0 0 0 0 0 0 0 0 0 2 3 5 7 9 9 8 6 5 2 1 0 0 0 0 0 0 0 0 0 0 0 0 0 0 0 0 0 0 0 0 0
0 0 0 0 0 0 0 0 0 0 0 0 1 2 5 8 9 9 8 6 4 2 1 0 0 0 0 0 0 0 0 0 0 0 0 0 0 0 0 0 0 0 0
0 0 0 0 0 0 0 0 0 0 0 0 0 1 3 5 8 9 9 8 6 5 3 2 0 0 0 0 0 0 0 0 0 0 0 0 0 0 0 0 0 0 0
0 0 0 0 0 0 0 0 0 0 0 0 0 1 2 4 5 7 7 7 6 5 5 4 2 1 1 0 0 0 0 0 0 0 0 0 0 0 0 0 0 0 0
0 0 0 0 0 0 0 0 0 0 0 0 0 1 2 3 3 4 4 4 4 4 4 5 4 4 2 1 0 0 0 0 0 0 0 0 0 0 0 0 0 0 0
0 0 0 0 0 0 0 0 0 0 0 0 0 1 2 3 3 3 3 3 3 3 4 4 4 4 3 2 1 0 0 0 0 0 0 0 0 0 0 0 0 0 0
Wind_Speed
5 5 6 6 7 7 7 7 7 6 5 4 3 3 2 1 1 1 2 2 2 3 3 2 2 3 3 3 3 2 2 1 1 2 1 2 1 1 1 1 1 1 1
4 5 6 6 6 7 7 7 7 7 7 4 4 3 2 2 1 1 1 2 2 3 3 3 2 3 2 3 3 3 2 1 1 2 1 1 2 2 1 1 1 1 1
8 8 7 7 7 8 8 8 7 7 7 6 4 3 2 2 1 0 1 1 2 3 3 3 3 3 3 3 3 4 4 2 1 1 3 2 2 1 1 1 1 1 1
6 7 7 7 7 7 7 6 6 6 6 6 5 6 4 3 3 2 2 1 1 2 2 3 3 3 3 3 3 3 3 3 2 1 1 2 3 2 1 1 1 2 2
6 7 8 8 7 6 7 6 6 5 5 6 6 6 4 3 2 1 2 2 1 1 2 2 3 3 3 3 3 3 3 3 3 3 2 2 1 1 2 2 2 1 2
4 5 5 5 5 5 6 5 6 5 4 5 5 6 6 5 4 3 2 2 1 1 2 2 3 3 3 3 4 3 4 3 4 3 3 3 3 3 3 3 2 2 2
4 5 6 6 6 6 6 6 6 5 5 5 5 6 6 6 6 4 4 3 2 2 3 2 2 3 3 3 3 3 4 4 4 4 3 3 3 2 3 3 2 2 2
4 5 6 7 7 7 7 6 6 5 5 5 6 5 5 4 4 4 4 4 3 3 3 3 3 3 3 3 3 2 3 3 4 4 3 3 3 3 3 3 3 2 2
4 4 5 5 6 6 6 7 7 5 5 5 5 5 6 5 4 4 3 3 3 3 2 3 3 3 3 3 3 3 3 3 3 3 3 3 3 3 3 3 4 4 3
3 3 4 4 4 5 5 5 6 6 5 5 5 4 5 5 5 4 4 3 3 2 2 2 3 3 3 3 3 3 3 3 3 2 3 3 3 3 3 3 3 4 4
4 3 2 3 3 3 3 4 5 5 4 5 4 4 4 4 4 4 4 3 3 3 3 3 3 3 3 3 3 3 3 4 3 3 3 4 3 2 3 3 3 3 3
3 3 2 2 3 3 3 3 4 4 5 5 4 4 4 4 4 4 4 3 3 3 3 3 3 3 3 3 4 4 4 4 4 4 4 4 3 3 3 3 3 3 4
3 2 2 2 2 2 2 3 3 4 4 4 5 4 3 4 4 4 3 3 3 3 3 3 3 3 3 3 4 4 4 4 5 5 5 5 4 3 3 3 3 3 3
3 3 2 2 2 2 2 3 3 3 3 4 4 4 4 4 4 4 3 4 4 4 3 3 3 4 4 4 4 4 4 4 4 4 5 5 5 5 4 3 4 3 3
2 2 2 2 1 1 1 1 2 2 3 4 4 4 3 3 3 3 3 3 3 3 3 3 3 3 3 4 4 4 4 4 4 4 4 5 5 6 5 4 4 4 3
2 2 1 2 2 2 1 1 1 2 3 3 3 2 2 2 2 3 3 2 2 2 2 3 3 3 3 4 5 5 4 4 4 4 4 4 4 5 5 5 5 6 5
2 2 3 3 3 3 3 2 2 2 3 3 3 2 2 2 3 2 2 2 2 2 2 3 3 3 3 4 5 6 4 4 4 4 3 3 3 3 3 3 3 4 5
2 2 2 2 2 2 2 1 1 2 3 3 2 2 2 2 2 2 2 3 2 2 3 3 3 3 3 4 5 5 4 3 4 4 4 4 3 3 3 2 2 2 3
3 3 3 2 2 2 2 2 2 1 1 2 2 2 3 3 2 3 3 2 2 2 3 2 3 3 3 3 3 4 2 2 3 4 4 4 4 4 4 3 2 2 3
1 2 2 1 2 2 2 3 2 2 1 1 2 2 3 3 3 3 3 2 2 3 3 3 3 3 3 4 4 4 3 3 3 2 3 4 4 4 4 4 3 4 3
1 2 2 2 1 1 3 3 2 2 2 1 1 1 2 3 3 3 2 2 2 2 2 2 2 3 3 4 4 5 4 4 3 3 2 3 4 5 5 5 4 5 3
1 2 2 1 1 1 3 3 2 2 1 1 0 1 1 1 1 1 1 1 2 2 2 2 3 2 3 3 3 4 5 4 3 3 3 3 4 5 5 4 4 4 3
1 1 2 1 1 1 2 2 2 1 0 0 0 0 0 1 0 1 1 1 1 1 2 2 3 3 2 2 4 4 5 5 4 3 4 3 3 3 3 3 4 3 2
1 1 2 2 0 1 1 1 0 0 1 0 1 0 0 1 1 0 0 1 1 1 2 2 3 2 2 2 2 2 2 3 3 2 2 2 2 2 2 2 2 2 2
0 1 1 2 1 1 1 1 1 1 1 0 1 0 0 0 0 1 1 1 2 3 3 3 3 3 3 3 3 2 2 2 2 2 1 1 0 1 1 1 1 2 2
0 1 1 1 1 1 1 1 1 1 1 0 1 1 1 0 0 1 2 2 2 2 3 4 3 3 4 3 2 3 2 2 3 3 1 1 1 2 2 2 2 2 2
Wind_Direction
203 180 177 169 160 156 160 164 159 156 146 148 152 153 165 172 164 177 179 175 167 162 160 163 160 163 169 176 163 144 132 118 118 94 28 0 10 356 278 242 228 229 226
186 180 176 168 167 166 167 165 168 166 161 165 160 152 152 170 177 168 166 182 176 168 168 165 168 171 165 165 165 156 141 146 129 132 106 11 348 340 333 283 226 234 230
195 190 180 178 173 175 177 175 173 169 165 157 139 126 103 83 102 171 204 210 188 169 166 172 169 177 180 185 184 174 167 174 175 157 150 159 215 292 317 298 264 243 231
197 190 181 180 181 181 171 168 165 165 162 158 157 157 163 176 197 197 201 213 188 177 172 171 175 184 190 192 196 185 178 172 187 185 188 176 157 162 284 307 287 264 239
195 187 184 183 177 169 166 168 158 158 158 161 168 167 169 176 170 165 178 198 207 199 189 181 182 190 197 200 198 189 189 189 190 185 173 162 134 160 174 252 287 289 260
177 177 168 157 157 158 159 158 153 154 154 162 170 172 174 171 162 173 187 207 225 232 222 194 193 198 200 202 203 200 196 199 197 194 184 174 173 185 180 211 247 269 275
164 158 157 158 160 164 162 161 157 160 165 170 177 182 180 177 185 187 195 198 204 224 233 213 207 207 209 201 191 197 204 200 198 202 205 202 201 178 170 181 222 255 280
156 163 169 168 168 169 164 163 162 168 171 176 182 183 181 181 193 192 191 196 207 220 219 213 214 215 208 199 188 193 206 199 205 211 205 206 212 195 187 185 184 230 273
156 162 165 168 169 169 169 170 168 170 174 179 182 181 178 186 193 191 188 197 211 215 209 205 210 211 205 196 185 196 204 197 207 209 206 212 218 211 211 202 194 191 228
138 153 169 173 168 165 160 161 171 176 179 183 189 185 181 186 189 186 194 203 212 208 202 207 207 208 203 194 188 198 203 196 208 203 207 223 227 222 215 210 207 198 200
159 161 165 165 152 143 146 161 170 170 178 187 188 178 176 176 176 188 203 207 209 205 207 208 205 203 202 198 195 206 199 205 219 216 213 230 230 226 221 207 199 201 195
152 139 129 127 137 152 156 161 171 178 186 185 177 182 177 172 181 197 207 204 209 215 214 208 205 206 202 196 199 215 212 211 220 223 218 233 226 225 226 216 213 211 205
123 103 104 119 142 161 168 171 179 186 182 171 168 172 181 185 198 206 205 202 207 216 214 203 207 213 207 205 208 209 213 216 220 218 216 225 216 224 224 216 216 216 207
127 127 137 139 151 156 171 176 178 176 172 167 166 177 192 198 203 204 201 202 204 209 214 211 213 216 214 213 212 208 209 215 225 225 220 219 212 218 219 218 218 208 196
126 151 164 156 134 123 131 164 168 169 167 161 173 193 197 188 189 196 202 201 204 216 216 212 216 220 217 218 213 210 210 215 229 234 228 221 217 220 215 214 208 196 192
171 185 172 157 167 174 181 168 168 179 166 167 187 187 173 176 195 208 202 197 207 215 210 218 220 226 231 225 214 208 211 215 222 233 239 233 225 229 227 226 214 197 195
186 191 196 201 198 191 181 189 196 181 172 178 176 164 170 191 210 208 196 207 206 200 214 226 220 230 245 227 216 213 203 211 222 227 229 235 233 221 222 234 230 223 217
192 196 206 210 209 195 180 178 164 154 166 174 178 170 179 200 203 190 211 223 210 202 214 226 225 229 249 233 218 211 207 214 224 225 222 222 232 223 207 213 227 243 244
205 201 198 196 188 182 180 142 129 124 146 179 196 201 195 197 196 207 227 230 215 222 226 225 223 230 258 250 225 200 201 219 236 235 225 216 224 226 193 182 210 247 266
169 160 148 131 148 184 167 143 147 148 181 225 218 207 194 194 207 216 218 219 222 230 231 238 233 229 245 248 226 197 192 212 236 246 234 220 218 214 191 188 199 226 251
149 134 130 135 174 179 150 147 150 189 224 229 254 246 210 201 208 216 214 206 219 227 229 238 246 239 241 242 226 203 196 206 218 235 243 238 217 216 212 206 210 220 220
103 122 124 128 147 147 140 151 197 233 217 162 119 274 265 235 199 199 217 206 203 213 236 240 252 252 246 240 239 222 212 206 206 229 236 233 215 220 220 214 221 218 201
118 126 132 126 92 149 148 170 233 230 114 82 300 302 349 359 32 192 217 229 210 212 240 238 243 258 254 242 236 229 222 208 205 223 223 227 219 217 222 216 207 195 181
127 138 128 123 153 216 179 201 256 75 108 104 314 345 51 359 360 350 239 220 230 231 245 247 251 255 255 246 235 237 231 218 216 223 207 194 198 202 211 203 195 194 194
304 137 159 167 193 193 184 201 153 123 117 242 281 295 263 273 340 322 257 239 239 218 223 239 236 235 248 247 228 216 223 221 207 167 126 128 168 215 223 226 222 208 201
120 126 141 134 134 157 173 189 173 146 141 177 242 236 224 259 284 306 325 323 262 258 235 237 232 233 235 232 201 204 206 187 148 138 158 198 222 232 232 233 240 236 232